Погода в Вашингтоне

США     38°39′08″N   87°10′15″W
темп.,
°C
ветер,
м/с
пор.,
м/с
влажн.,
%
обл.,
%
осадки,
мм/ч
давл.,
гПа
погр.,
м
16 июня, ср
ср1623:00+21св2470100 0.0 101664
02:00+20с347030 0.0 101792
05:00+16ссв337362 0.0 101742
08:00+16ссв24810 0.0 1018115
11:00+22ссв336510 0.0 1018480
14:00+25ссз34500 0.0 10181390
17:00+26с34495 0.0 10171607
20:00+23с22685 0.0 101641
17 июня, чт
чт1723:00+18св33733 0.0 101724
02:00+16св22840 0.0 101721
05:00+15св22885 0.0 101714
08:00+17ююв118525 0.0 101869
11:00+23в10655 0.0 1018527
14:00+27ю114881 0.0 10171219
17:00+28ю2248100 0.0 10151248
20:00+25ююв23705 0.0 101535
18 июня, пт
пт1823:00+21ююв47775 0.0 1015114
02:00+20ю3108174 0.0 1015194
05:00+20ю51383100 0.0 1013316
08:00+21ююз61488100 0.2 1013396
11:00+25ююз71184100 6.1 1013522
14:00+29юз71071100 6.1 10121112
17:00+31юз8116966 0.0 10101421
20:00+28юз71378100 0.5 1010533
19 июня, сб
сб1923:00+26юз6147845 0.1 1011592
02:00+23юз5149240 2.3 1011462
05:00+22юз61492100 3.6 1011402
08:00+22юз51194100 7.8 1012373
11:00+26зюз458371 0.4 1012678
14:00+28з5676100 1.5 1012931
17:00+28з226994 0.6 1010986
20:00+27з24785 0.6 1010102
20 июня, вс
вс2023:00+23з228390 0.3 101118
02:00+21з1192100 2.6 101011
05:00+20юз249994 4.1 1010139
08:00+22ю359789 4.2 1009263
11:00+24ююз458660 0.1 1009617
14:00+27ю457392 0.2 10081086
17:00+27ю577197 0.0 10061137
20:00+26ююз478254 0.1 1006401